CW8635 Weather Reports


Display with metric or nautical units.
time (UTC)temp
F
wind
direction
speed
MPH
gust
MPH
rain 1hr
in
rain 24hr
in
rain mn
in
humidity
%
barometer
mb
20260505021617 68 184 3.0 5.0 0.00 0.00 0.00 31 1006.0
20260505020636 69 157 2.0 7.0 0.00 0.00 0.00 31 1005.9
20260505015625 70 200 2.0 7.0 0.00 0.00 0.00 30 1005.8
20260505014628 70 192 3.0 9.0 0.00 0.00 0.00 29 1005.7
20260505013629 71 148 2.0 7.0 0.00 0.00 0.00 29 1005.7
20260505012628 71 189 3.0 10.0 0.00 0.00 0.00 28 1005.8
20260505011612 72 153 3.0 8.0 0.00 0.00 0.00 28 1005.9
20260505010611 72 251 4.0 9.0 0.00 0.00 0.00 28 1006.0
20260505005622 72 174 2.0 10.0 0.00 0.00 0.00 29 1006.0
20260505004643 72 216 4.0 11.0 0.00 0.00 0.00 28 1006.1
20260505003626 72 223 4.0 10.0 0.00 0.00 0.00 29 1006.3
20260505002626 72 165 4.0 8.0 0.00 0.00 0.00 29 1006.3
20260505001626 71 159 4.0 13.0 0.00 0.00 0.00 30 1006.4
20260505000612 72 228 7.0 12.0 0.00 0.00 0.00 28 1006.4
20260504235624 73 196 6.0 12.0 0.00 0.00 0.00 29 1006.4
20260504234622 73 146 5.0 16.0 0.00 0.00 0.00 27 1006.4
20260504233622 73 188 8.0 13.0 0.00 0.00 0.00 27 1006.4
20260504232624 73 234 7.0 14.0 0.00 0.00 0.00 26 1006.4
20260504231624 72 221 8.0 13.0 0.00 0.00 0.00 25 1006.5
20260504230624 72 215 8.0 12.0 0.00 0.00 0.00 27 1006.5
20260504225618 71 198 9.0 16.0 0.00 0.00 0.00 28 1006.5
20260504224618 72 269 10.0 14.0 0.00 0.00 0.00 28 1006.7
20260504223637 71 261 15.0 21.0 0.00 0.00 0.00 28 1006.6
20260504222620 72 234 11.0 21.0 0.00 0.00 0.00 28 1006.5
20260504221617 73 271 9.0 14.0 0.00 0.00 0.00 23 1006.5
20260504220617 73 236 4.0 12.0 0.00 0.00 0.00 21 1006.5
20260504215649 74 316 9.0 13.0 0.00 0.00 0.00 21 1006.7
20260504214612 73 274 9.0 16.0 0.00 0.00 0.00 21 1006.8
20260504213611 74 291 9.0 15.0 0.00 0.00 0.00 22 1006.9
20260504212610 75 261 2.0 9.0 0.00 0.00 0.00 24 1007.0
20260504211634 73 275 4.0 15.0 0.00 0.00 0.00 21 1007.3
20260504210613 74 279 7.0 16.0 0.00 0.00 0.00 21 1007.4
20260504205626 73 305 8.0 14.0 0.00 0.00 0.00 22 1007.4
20260504204627 73 242 5.0 16.0 0.00 0.00 0.00 22 1007.6
20260504203630 72 308 3.0 11.0 0.00 0.00 0.00 25 1007.7
20260504202610 72 272 7.0 16.0 0.00 0.00 0.00 24 1007.8
20260504201629 72 257 8.0 15.0 0.00 0.00 0.00 25 1007.8
20260504200633 72 275 11.0 18.0 0.00 0.00 0.00 26 1007.9
20260504195621 72 290 8.0 11.0 0.00 0.00 0.00 27 1008.0
20260504194620 72 311 9.0 17.0 0.00 0.00 0.00 27 1008.1
20260504193621 72 274 6.0 18.0 0.00 0.00 0.00 27 1008.2
20260504192624 72 276 8.0 20.0 0.00 0.00 0.00 27 1008.2
20260504191625 72 270 10.0 12.0 0.00 0.00 0.00 26 1008.4
20260504190621 72 322 5.0 12.0 0.00 0.00 0.00 26 1008.5
20260504185617 72 248 4.0 8.0 0.00 0.00 0.00 28 1008.6
20260504184638 71 201 6.0 11.0 0.00 0.00 0.00 29 1008.6
20260504183617 71 316 1.0 7.0 0.00 0.00 0.00 29 1008.7
20260504182620 71 224 4.0 9.0 0.00 0.00 0.00 27 1009.0
20260504181620 72 153 2.0 8.0 0.00 0.00 0.00 29 1009.1
20260504180611 72 202 2.0 8.0 0.00 0.00 0.00 29 1009.3
20260504175620 72 263 1.0 8.0 0.00 0.00 0.00 29 1009.4
20260504174620 71 126 2.0 6.0 0.00 0.00 0.00 31 1009.5
20260504173624 69 155 2.0 7.0 0.00 0.00 0.00 33 1009.6
20260504172625 69 175 1.0 9.0 0.00 0.00 0.00 30 1009.7
20260504171624 69 187 1.0 8.0 0.00 0.00 0.00 33 1009.7
20260504170629 69 198 3.0 9.0 0.00 0.00 0.00 34 1009.7
20260504150641 65 164 3.0 10.0 0.00 0.00 0.00 39 1010.1
20260504140638 63 133 3.0 4.0 0.00 0.00 0.00 39 1010.2
20260504130613 58 105 3.0 6.0 0.00 0.00 0.00 42 1010.2
20260504110613 56 32 3.0 4.0 0.00 0.00 0.00 38 1010.2
20260504100614 57 91 0.0 0.0 0.00 0.00 0.00 37 1010.0
20260504081625 61 53 3.0 6.0 0.00 0.00 0.00 26 1009.1
20260504080610 60 49 3.0 5.0 0.00 0.00 0.00 28 1009.1
20260504050622 65 5 3.0 5.0 0.00 0.00 0.00 23 1009.6
20260504045615 65 39 4.0 6.0 0.00 0.00 0.00 22 1009.7
20260504044615 65 52 3.0 5.0 0.00 0.00 0.00 22 1009.7
20260504043616 65 27 3.0 6.0 0.00 0.00 0.00 23 1009.8
20260504042615 66 32 3.0 5.0 0.00 0.00 0.00 23 1009.8
20260504041616 66 31 3.0 4.0 0.00 0.00 0.00 22 1009.7
20260504040619 66 31 3.0 5.0 0.00 0.00 0.00 22 1009.7
20260504035613 66 36 2.0 3.0 0.00 0.00 0.00 22 1009.8
20260504034612 67 37 2.0 4.0 0.00 0.00 0.00 22 1009.8
20260504033615 67 37 2.0 4.0 0.00 0.00 0.00 20 1009.8
20260504032611 67 37 2.0 3.0 0.00 0.00 0.00 19 1009.8
20260504031628 68 37 0.0 3.0 0.00 0.00 0.00 20 1009.8
20260504030624 68 37 2.0 4.0 0.00 0.00 0.00 20 1009.8
20260504025630 68 31 1.0 4.0 0.00 0.00 0.00 20 1009.8
20260504024615 69 34 2.0 5.0 0.00 0.00 0.00 19 1009.8
20260504023614 69 347 3.0 5.0 0.00 0.00 0.00 18 1009.8
20260504022613 69 341 3.0 5.0 0.00 0.00 0.00 18 1009.7